Location: ???????
(54.9996°N, 37.9529°E)
Time: 19:11:59
(UTC+00:00)

Cosmos 921 Rocket - Pass Details

Date: 14 April 2024
Orbit: 568 x 626 km, 75.8° (Epoch: 27 May)

Event Time Altitude Azimuth Distance (km) Brightness Sun altitude
Rises 01:14:22 0° 182° (S) 2,792 6.1 -10.2°
Reaches altitude 10° 01:16:37 10° 176° (S) 1,906 5.3 -9.9°
Maximum altitude 01:20:37 43° 105° (ESE) 847 4.2 -9.4°
Drops below altitude 10° 01:24:44 10° 34° (NE) 1,955 6.8 -8.9°
Sets 01:27:04 0° 28° (NNE) 2,874 7.6 -8.6°
